Location: Jastrzębia Góra
(54.8312°N, 18.3037°E)
Time: 04:14:06
(UTC+01:00)

ISS - Pass Details

Date: 31 January 2019
Orbit: 403 x 411 km, 51.6° (Epoch: 17 February)

Event Time Altitude Azimuth Distance (km) Brightness Sun altitude
Rises 18:10:44 0° 259° (W) 2,335 1.9 -15.6°
Reaches altitude 10° 18:12:51 10° 254° (WSW) 1,476 0.3 -15.9°
Maximum altitude 18:16:03 48° 178° (S) 544 -3.2 -16.3°
Enters shadow 18:17:03 35° 128° (SE) 692 -3.0 -16.5°
